Content
SEND FEEDBACK

Daily
Averages
Monthly
Summary
Greece

KALAMATA, GREECE


Home > Europe > Greece
Elevation: 26 feet     Latitude: 37 04N     Longitude: 022 01E

WEATHER
 
SELECT A DAY
Number of Records: 252,934;   Date Range: 7/1/96 - 11/23/14
 
SHARE

PRINT THIS DATA

[ ← Previous Day ]
WEATHER ALMANAC - FEBRUARY 3, 2013
[ Next Day → ]
[ °C ]   °F
Weather ElementAverageHighLow
Temperature62.2 °F66.2 °F (1:20 pm)51.8 °F (10:50 pm)
Dewpoint54 °F57.2 °F (3:20 pm)50 °F (7:20 am)
Humidity75 %94 % (6:50 pm)64 % (9:20 am)
Barometer29.86 in29.92 in (9:20 pm)29.83 in (5:20 am)
Wind Speed12.1 mph18.4 mph (10:20 am)
Wind Gust29.9 mph (10:20 am)
Weather ElementAverage
Visibility5.2 mi
Wind DirectionSE (131.3 °)

Weather ElementTotal
Precipitation---
Heating Degree Days6 (Base 65)
Growing Degree Days9 (Base 50)
Averaged from 30 records on February 3, 2013
WEATHER CONDITIONS BREAKOUT
WIND DIRECTION BREAKOUT
WEATHER BY HOUR - FEBRUARY 3, 2013
[ °C ]   °F
Local TimeTemperatureDewpointHumidityBarometerVisibilityWind DirectionWind SpeedGust SpeedPrecipitationEventsConditions
5:20 AM60.8 °F53.6 °F77 %29.83 in6.2 miSE (140°)10.4 mphMostly Cloudy
5:50 AM60.8 °F51.8 °F72 %29.83 in6.2 miSSE (150°)11.5 mphMostly Cloudy
6:50 AM60.8 °F51.8 °F72 %29.83 in6.2 miSSE (150°)13.8 mphScattered Clouds
7:20 AM60.8 °F50.0 °F68 %29.83 in6.2 miSSE (150°)12.7 mph24.2 mphScattered Clouds
7:50 AM60.8 °F50.0 °F68 %29.83 in6.2 miSSE (160°)15.0 mph26.5 mphScattered Clouds
8:20 AM62.6 °F51.8 °F68 %29.86 in6.2 miSSE (150°)16.1 mph27.6 mphMostly Cloudy
8:50 AM62.6 °F51.8 °F68 %29.86 in6.2 miSSE (160°)16.1 mphMostly Cloudy
9:20 AM64.4 °F51.8 °F64 %29.86 in6.2 miSSE (160°)17.3 mph28.8 mphMostly Cloudy
9:50 AM64.4 °F51.8 °F64 %29.86 in6.2 miSSE (160°)17.3 mph28.8 mphMostly Cloudy
10:20 AM64.4 °F53.6 °F68 %29.86 in6.2 miSSE (150°)18.4 mph29.9 mphMostly Cloudy
10:50 AM64.4 °F53.6 °F68 %29.86 in6.2 miSSE (160°)17.3 mph28.8 mphMostly Cloudy
11:20 AM64.4 °F53.6 °F68 %29.86 in6.2 miSE (140°)17.3 mph28.8 mphMostly Cloudy
11:50 AM64.4 °F53.6 °F68 %29.86 in6.2 miSSE (150°)17.3 mphMostly Cloudy
12:20 PM64.4 °F53.6 °F68 %29.86 in6.2 miSSE (150°)17.3 mphMostly Cloudy
12:50 PM64.4 °F53.6 °F68 %29.86 in6.2 miSSE (150°)15.0 mph26.5 mphMostly Cloudy
1:20 PM66.2 °F55.4 °F68 %29.86 in6.2 miSSE (150°)16.1 mphMostly Cloudy
1:50 PM66.2 °F55.4 °F68 %29.83 in6.2 miSSE (150°)15.0 mph26.5 mphScattered Clouds
2:20 PM66.2 °F55.4 °F68 %29.83 in5.0 miSSE (150°)16.1 mphScattered Clouds
2:50 PM64.4 °F55.4 °F73 %29.83 in5.0 miSSE (150°)15.0 mphScattered Clouds
3:20 PM66.2 °F57.2 °F73 %29.83 in5.0 miSSE (160°)13.8 mphScattered Clouds
3:50 PM64.4 °F57.2 °F77 %29.83 in5.0 miSSE (150°)12.7 mphScattered Clouds
4:20 PM64.4 °F57.2 °F77 %29.83 in5.0 miSSE (160°)13.8 mphScattered Clouds
5:20 PM62.6 °F57.2 °F82 %29.86 in3.7 miSE (140°)9.2 mphScattered Clouds
5:50 PM60.8 °F57.2 °F88 %29.86 in3.7 miSSE (150°)8.1 mphScattered Clouds
6:20 PM60.8 °F55.4 °F82 %29.86 in3.7 miSSE (160°)6.9 mphScattered Clouds
6:50 PM59.0 °F57.2 °F94 %29.86 in3.7 miSE (140°)4.6 mphScattered Clouds
7:20 PM59.0 °F55.4 °F88 %29.89 in3.7 miCalmScattered Clouds
7:50 PM57.2 °F55.4 °F94 %29.89 in3.7 miCalmScattered Clouds
9:20 PM53.6 °F51.8 °F94 %29.92 in0.3 miCalmFogFog
10:50 PM51.8 °F50.0 °F94 %29.92 in1.9 miCalmScattered Clouds
Hourly data recorded from LGKL, located miles away from Kalamata, Greece







STORIES FROM OUR PARTNERS